This demonstration page uses our WeatherBlox Daily Observations layout. Learn more.

Left ArrowRight Arrow

Hourly Observations for October 31, 2022

Temp ( °F °C ) Dew Point ( °F °C ) Humidity (%) Winds ( mph kmh ) Pressure ( in mb ) Visibility ( mi km ) Precip ( " mm )
12:56 am 00:56 Clear 40 4.4 33 0.6 76 76 WNW 3 6 29.99 1016 10 16 0.00 0.00
1:56 am 01:56 Clear 37 2.8 30 -1.1 75 75 WNW 5 7 29.98 1015 10 16 0.00 0.00
2:56 am 02:56 Clear 36 2.2 29 -1.7 75 75 WNW 5 7 29.98 1015 10 16 0.00 0.00
3:56 am 03:56 Clear 35 1.7 28 -2.2 75 75 WNW 3 6 29.98 1015 10 16 0.00 0.00
4:56 am 04:56 Clear 35 1.7 28 -2.2 75 75 WSW 3 6 29.97 1015 10 16 0.00 0.00
5:56 am 05:56 Clear 33 0.6 27 -2.8 78 78 Calm 29.97 1015 10 16 0.00 0.00
6:56 am 06:56 Clear 37 2.8 28 -2.2 70 70 SW 6 9 29.97 1015 10 16 0.00 0.00
7:56 am 07:56 Clear 36 2.2 28 -2.2 73 73 SW 5 7 29.98 1015 10 16 0.00 0.00
8:56 am 08:56 Sunny 36 2.2 30 -1.1 79 79 SW 6 9 29.98 1015 10 16 0.00 0.00
9:56 am 09:56 Sunny 43 6.1 31 -0.6 62 62 SW 6 9 29.98 1015 10 16 0.00 0.00
10:56 am 10:56 Sunny 52 11.1 32 0 46 46 SSW 9 15 29.97 1015 10 16 0.00 0.00
11:56 am 11:56 Sunny 62 16.7 31 -0.6 31 31 SW 13 20 29.94 1014 10 16 0.00 0.00
12:56 pm 12:56 Sunny 66 18.9 30 -1.1 26 26 SSW 13 20 29.92 1013 10 16 0.00 0.00
1:56 pm 13:56 Sunny 69 20.6 30 -1.1 23 23 SSW 15 24 29.89 1012 10 16 0.00 0.00
2:56 pm 14:56 Sunny 70 21.1 31 -0.6 23 23 SW 16 26 29.87 1012 10 16 0.00 0.00
3:56 pm 15:56 Sunny 71 21.7 31 -0.6 23 23 SSW 15 24 29.86 1011 10 16 0.00 0.00
4:56 pm 16:56 Sunny 71 21.7 28 -2.2 20 20 SSW 15 24 29.86 1011 10 16 0.00 0.00
5:56 pm 17:56 Sunny 68 20 29 -1.7 23 23 SW 8 13 29.87 1012 10 16 0.00 0.00
6:56 pm 18:56 Clear 58 14.4 30 -1.1 34 34 SSW 6 9 29.89 1012 10 16 0.00 0.00
7:56 pm 19:56 Clear 57 13.9 30 -1.1 35 35 SSW 6 9 29.91 1013 10 16 0.00 0.00
8:56 pm 20:56 Clear 50 10 29 -1.7 44 44 S 8 13 29.92 1013 10 16 0.00 0.00
9:56 pm 21:56 Clear 52 11.1 29 -1.7 41 41 SW 8 13 29.92 1013 10 16 0.00 0.00
10:56 pm 22:56 Clear 49 9.4 29 -1.7 46 46 SSW 9 15 29.92 1013 10 16 0.00 0.00
11:56 pm 23:56 Clear 52 11.1 33 0.6 48 48 SSW 10 17 29.92 1013 10 16 0.00 0.00

Powered by AerisWeather